Flag for U.S.A. Weather past 2 weeks in Salinas, California, U.S.A.

Now
68 °F

Passing clouds.


Feels Like: 68 °F
Forecast: 61 / 71 °F
Wind: 8 mph from Northwest

Location: Salinas Municipal Airport

Current Time: Aug 3, 2015 at 10:22:05 AM

Latest Report: Aug 3, 2015 at 9:53 AM


Visibility: 10 mi

Pressure: 29.99 "Hg

Humidity: 61%

Dew point: 54 °F

Location of SalinasLocation

Historic Weather in Salinas — Graph

°F

Salinas temperature yesterday

Maximum temperature yesterday: 72 °F (at 1:53 PM)
Minimum temperature yesterday: 63 °F (at 3:53 AM)
Average temperature yesterday: 66 °F

Past Weeks' High & Low Weather Summary

 TemperatureHumidityPressure
High89 °F (Jul 20, 11:53 AM)96% (Jul 29, 2:53 AM)30.14 "Hg (Jul 29, 2:53 AM)
Low54 °F (Jul 28, 4:53 AM)41% (Jul 20, 11:53 AM)29.89 "Hg (Jul 28, 6:53 PM)
Average66 °F73%30.00 "Hg
* Reported Jul 19 8:53 AM — Aug 3 8:53 AM, Salinas, Weather by CustomWeather, © 2015

Note: Actual official high and low records may vary slightly from our data, if they occured in-between our weather recording intervals... More about our weather records

Advertising

Salinas weather history for previous 24 hours

 ConditionsComfort  
Time TempWeatherWind HumidityBarometerVisibility
8:53 AM
Mon, Aug 3
65 °FOvercast.6 mph68%29.99 "Hg10 mi
7:53 AM64 °FOvercast.7 mph70%30.00 "Hg10 mi
6:53 AM64 °FOvercast.6 mph70%29.99 "Hg10 mi
5:53 AM64 °FOvercast.9 mph73%29.98 "Hg10 mi
4:53 AM64 °FPassing clouds.9 mph73%29.98 "Hg10 mi
3:53 AM64 °FOvercast.7 mph75%29.97 "Hg10 mi
2:53 AM64 °FOvercast.8 mph75%29.96 "Hg10 mi
1:53 AM64 °FOvercast.12 mph75%29.97 "Hg10 mi
12:53 AM64 °FClear.7 mph75%29.96 "Hg10 mi
11:53 PM
Sun, Aug 2
64 °FClear.6 mph73%29.96 "Hg10 mi
10:53 PM64 °FClear.5 mph73%29.96 "Hg10 mi
9:53 PM65 °FClear.6 mph70%29.96 "Hg10 mi
8:53 PM65 °FSunny.7 mph70%29.95 "Hg10 mi
7:53 PM67 °FSunny.12 mph66%29.95 "Hg10 mi
6:53 PM69 °FSunny.10 mph61%29.94 "Hg10 mi
5:53 PM70 °FSunny.13 mph59%29.94 "Hg10 mi
4:53 PM71 °FSunny.14 mph57%29.95 "Hg10 mi
3:53 PM71 °FSunny.16 mph59%29.96 "Hg10 mi
2:53 PM72 °FSunny.16 mph57%29.97 "Hg10 mi
1:53 PM72 °FSunny.13 mph57%29.97 "Hg10 mi
12:53 PM71 °FSunny.13 mph59%29.99 "Hg10 mi
11:53 AM68 °FSunny.10 mph65%30.01 "Hg10 mi
11:03 AM68 °FScattered clouds.10 mph64%29.99 "Hg10 mi
10:53 AM68 °FPartly sunny.12 mph65%30.01 "Hg10 mi
Weather by CustomWeather, © 2015

See weather overviewHow to use our weather pages